CFG7EP LPMA-EDDF

Flight info

Callsign CFG7EP
Flight time N/A
Altitude 38000
Route DEGUN DCT ROLAR DCT VERAM DCT ASMAR DCT DEMOS DCT LOTEE DCT AZFIC DCT ERIGA DCT MOKOR UN741 NTS DCT GONEK DCT TABOV DCT TSU DCT OQQAL DCT RANUX/N0456F390 DCT VALEK DCT LUTAX DCT DIK T856 NIVNU/N0407F230 T847 IMCOM IMCOM1A
Aircraft A20N/M-SDE2E3FGHIRWXY/LB1

Departure

Time N/A
Airport Cristiano Ronaldo International Airport (LPMA)

Arrival

Time 2026-05-05 21:16
Airport Frankfurt Main Airport (EDDF)
Time Latitude Longitude Altitude Speed Heading
2026-05-05 20:35 49.53714 6.28428 38810 ft 470 kts 76°
2026-05-05 20:36 49.55456 6.38154 38830 ft 470 kts 77°
2026-05-05 20:36 49.57169 6.47776 38825 ft 470 kts 77°
2026-05-05 20:37 49.58881 6.57450 38822 ft 470 kts 77°
2026-05-05 20:37 49.60583 6.67108 38816 ft 470 kts 77°
2026-05-05 20:38 49.62291 6.76882 38828 ft 469 kts 77°
2026-05-05 20:38 49.63975 6.86553 38837 ft 469 kts 77°
2026-05-05 20:39 49.65645 6.96183 38827 ft 468 kts 78°
2026-05-05 20:39 49.66483 7.01032 38464 ft 466 kts 78°
2026-05-05 20:39 49.67308 7.05810 38013 ft 462 kts 78°
2026-05-05 20:39 49.68129 7.10583 37579 ft 458 kts 78°
2026-05-05 20:40 49.68936 7.15294 37158 ft 455 kts 78°
2026-05-05 20:40 49.69741 7.20016 36682 ft 453 kts 78°
2026-05-05 20:40 49.70539 7.24695 36238 ft 451 kts 78°
2026-05-05 20:40 49.71330 7.29344 35684 ft 450 kts 78°
2026-05-05 20:41 49.72118 7.33978 35121 ft 447 kts 78°
2026-05-05 20:41 49.72897 7.38587 34559 ft 445 kts 78°
2026-05-05 20:41 49.73668 7.43173 33914 ft 442 kts 78°
2026-05-05 20:41 49.74440 7.47775 33271 ft 443 kts 78°
2026-05-05 20:42 49.75204 7.52334 32447 ft 445 kts 78°
2026-05-05 20:42 49.75978 7.56972 31610 ft 446 kts 78°
2026-05-05 20:42 49.76746 7.61583 30773 ft 446 kts 78°
2026-05-05 20:42 49.77510 7.66181 29837 ft 446 kts 79°
2026-05-05 20:43 49.78281 7.70851 28898 ft 449 kts 79°
2026-05-05 20:43 49.79046 7.75491 27957 ft 452 kts 79°
2026-05-05 20:43 49.79816 7.80181 27019 ft 457 kts 78°
2026-05-05 20:43 49.80605 7.84984 26082 ft 462 kts 78°
2026-05-05 20:44 49.81399 7.89810 25131 ft 467 kts 78°
2026-05-05 20:44 49.82194 7.94660 24179 ft 470 kts 77°
2026-05-05 20:44 49.82989 7.99521 23213 ft 467 kts 77°
2026-05-05 20:44 49.83769 8.04270 21930 ft 455 kts 77°
2026-05-05 20:45 49.85288 8.13537 18436 ft 442 kts 77°
2026-05-05 20:45 49.86023 8.18079 16930 ft 439 kts 77°
2026-05-05 20:45 49.86743 8.22568 15720 ft 433 kts 77°
2026-05-05 20:46 49.87527 8.27035 14780 ft 430 kts 74°
2026-05-05 20:46 49.88452 8.31434 14195 ft 429 kts 71°
2026-05-05 20:46 49.89462 8.35726 13856 ft 427 kts 70°
2026-05-05 20:46 49.90468 8.39994 13813 ft 424 kts 70°
2026-05-05 20:47 49.91477 8.44270 13828 ft 421 kts 70°
2026-05-05 20:47 49.92481 8.48495 13825 ft 419 kts 70°
2026-05-05 20:47 49.93498 8.52734 13814 ft 416 kts 70°
2026-05-05 20:47 49.94609 8.56885 13775 ft 413 kts 62°
2026-05-05 20:48 49.96265 8.60478 13387 ft 415 kts 47°
2026-05-05 20:48 49.98262 8.63696 12522 ft 415 kts 44°
2026-05-05 20:48 50.00290 8.66788 11621 ft 415 kts 44°
2026-05-05 20:48 50.02334 8.69901 10870 ft 412 kts 44°
2026-05-05 20:49 50.04375 8.73031 10260 ft 405 kts 44°
2026-05-05 20:49 50.06335 8.76061 9972 ft 389 kts 44°
2026-05-05 20:49 50.08350 8.78656 9722 ft 372 kts 29°
2026-05-05 20:49 50.10692 8.80045 9494 ft 353 kts
2026-05-05 20:50 50.13070 8.80057 9276 ft 332 kts 349°
2026-05-05 20:50 50.14544 8.79647 9039 ft 318 kts 346°
2026-05-05 20:50 50.17309 8.78699 8507 ft 292 kts 344°
2026-05-05 20:50 50.19241 8.78010 7964 ft 281 kts 344°
2026-05-05 20:51 50.21124 8.77324 7238 ft 280 kts 344°
2026-05-05 20:51 50.23018 8.76631 6708 ft 280 kts 346°
2026-05-05 20:51 50.24939 8.76580 6259 ft 283 kts 13°
2026-05-05 20:51 50.26682 8.77916 5892 ft 281 kts 40°
2026-05-05 20:52 50.27828 8.80311 5526 ft 278 kts 69°
2026-05-05 20:52 50.28130 8.83241 5377 ft 277 kts 97°
2026-05-05 20:52 50.27507 8.86044 5257 ft 274 kts 126°
2026-05-05 20:52 50.26240 8.88216 5144 ft 274 kts 137°
2026-05-05 20:53 50.24907 8.90338 5023 ft 274 kts 136°
2026-05-05 20:53 50.23577 8.92511 4993 ft 275 kts 135°
2026-05-05 20:53 50.22274 8.94668 4989 ft 274 kts 135°
2026-05-05 20:53 50.20982 8.96816 4986 ft 274 kts 135°
2026-05-05 20:54 50.19672 8.98991 4982 ft 273 kts 135°
2026-05-05 20:54 50.18137 9.00676 4968 ft 268 kts 165°
2026-05-05 20:54 50.16327 9.00826 4983 ft 263 kts 192°
2026-05-05 20:54 50.14581 9.00178 4980 ft 252 kts 204°
2026-05-05 20:55 50.13254 8.98684 4961 ft 226 kts 236°
2026-05-05 20:55 50.12490 8.96545 4782 ft 233 kts 232°
2026-05-05 20:55 50.11364 8.94689 4472 ft 240 kts 225°
2026-05-05 20:55 50.10164 8.92959 4498 ft 238 kts 222°
2026-05-05 20:56 50.08877 8.91316 4577 ft 242 kts 221°
2026-05-05 20:56 50.07782 8.89416 4568 ft 227 kts 241°
2026-05-05 20:56 50.07012 8.87369 4584 ft 220 kts 238°
2026-05-05 20:56 50.06311 8.84989 4593 ft 259 kts 260°
2026-05-05 20:57 50.06245 8.82253 4357 ft 254 kts 277°
2026-05-05 20:57 50.06716 8.79609 4507 ft 250 kts 287°
2026-05-05 20:57 50.07183 8.77138 5045 ft 220 kts 284°
2026-05-05 20:57 50.07592 8.74910 5605 ft 220 kts 284°
2026-05-05 20:58 50.08033 8.72513 5922 ft 243 kts 284°
2026-05-05 20:58 50.08510 8.69927 6004 ft 252 kts 284°
2026-05-05 20:58 50.08989 8.67337 5991 ft 252 kts 284°
2026-05-05 20:58 50.09477 8.64714 5990 ft 253 kts 284°
2026-05-05 20:59 50.10144 8.62192 5976 ft 256 kts 304°
2026-05-05 20:59 50.11516 8.60393 5984 ft 262 kts 334°
2026-05-05 20:59 50.13284 8.59870 5982 ft 267 kts
2026-05-05 20:59 50.15060 8.60764 5995 ft 271 kts 32°
2026-05-05 21:00 50.16431 8.62794 6007 ft 273 kts 50°
2026-05-05 21:00 50.17592 8.65138 6015 ft 274 kts 53°
2026-05-05 21:00 50.18713 8.67532 6010 ft 274 kts 54°
2026-05-05 21:00 50.19831 8.69943 5994 ft 274 kts 54°
2026-05-05 21:01 50.20928 8.72308 5986 ft 266 kts 54°
2026-05-05 21:01 50.21978 8.74584 5981 ft 252 kts 54°
2026-05-05 21:01 50.22999 8.76813 5908 ft 250 kts 54°
2026-05-05 21:01 50.24010 8.79017 5843 ft 251 kts 54°
2026-05-05 21:02 50.25032 8.81245 5829 ft 251 kts 54°
2026-05-05 21:02 50.26040 8.83447 5816 ft 250 kts 53°
2026-05-05 21:02 50.27043 8.85644 5817 ft 251 kts 54°
2026-05-05 21:02 50.28070 8.87889 5815 ft 251 kts 53°
2026-05-05 21:03 50.29082 8.90116 5807 ft 251 kts 54°
2026-05-05 21:03 50.30089 8.92319 5809 ft 251 kts 54°
2026-05-05 21:03 50.31104 8.94521 5817 ft 251 kts 53°
2026-05-05 21:03 50.32122 8.96769 5808 ft 252 kts 58°
2026-05-05 21:04 50.32686 8.99299 5793 ft 248 kts 92°
2026-05-05 21:04 50.32172 9.01793 5808 ft 241 kts 132°
2026-05-05 21:04 50.30874 9.03324 5813 ft 234 kts 162°
2026-05-05 21:04 50.29317 9.03745 5617 ft 226 kts 187°
2026-05-05 21:05 50.27775 9.03341 5197 ft 228 kts 193°
2026-05-05 21:05 50.26210 9.02900 5007 ft 230 kts 192°
2026-05-05 21:05 50.24613 9.02511 5007 ft 232 kts 191°
2026-05-05 21:05 50.23026 9.02162 4995 ft 231 kts 190°
2026-05-05 21:06 50.21423 9.01833 4999 ft 231 kts 189°
2026-05-05 21:06 50.19848 9.01521 4976 ft 222 kts 189°
2026-05-05 21:06 50.18412 9.01229 4977 ft 197 kts 192°
2026-05-05 21:06 50.17157 9.00879 5026 ft 171 kts 194°
2026-05-05 21:07 50.16014 9.00540 5004 ft 167 kts 194°
2026-05-05 21:07 50.14870 9.00193 5007 ft 167 kts 194°
2026-05-05 21:07 50.13750 8.99856 4997 ft 167 kts 194°
2026-05-05 21:07 50.12603 8.99511 4823 ft 169 kts 194°
2026-05-05 21:08 50.11445 8.99165 4505 ft 171 kts 193°
2026-05-05 21:08 50.10275 8.98815 4224 ft 169 kts 196°
2026-05-05 21:08 50.09224 8.98161 4012 ft 162 kts 215°
2026-05-05 21:08 50.08401 8.96977 3809 ft 159 kts 236°
2026-05-05 21:09 50.07899 8.95501 3613 ft 152 kts 250°
2026-05-05 21:09 50.07569 8.93985 3416 ft 146 kts 253°
2026-05-05 21:09 50.07267 8.92511 3199 ft 140 kts 253°
2026-05-05 21:09 50.06972 8.91084 3049 ft 138 kts 252°
2026-05-05 21:10 50.06677 8.89676 2950 ft 137 kts 252°
2026-05-05 21:10 50.06379 8.88255 2841 ft 137 kts 255°
2026-05-05 21:10 50.06198 8.86818 2738 ft 136 kts 263°
2026-05-05 21:10 50.06175 8.85336 2634 ft 136 kts 272°
2026-05-05 21:11 50.06246 8.83878 2538 ft 136 kts 273°
2026-05-05 21:11 50.06324 8.82402 2467 ft 136 kts 273°
2026-05-05 21:11 50.06401 8.80939 2399 ft 136 kts 273°
2026-05-05 21:11 50.06466 8.79490 2332 ft 135 kts 272°
2026-05-05 21:12 50.06533 8.78033 2293 ft 135 kts 273°
2026-05-05 21:12 50.06616 8.76561 2254 ft 135 kts 274°
2026-05-05 21:12 50.06714 8.75112 2204 ft 135 kts 275°
2026-05-05 21:12 50.06787 8.73649 2135 ft 135 kts 269°
2026-05-05 21:13 50.06792 8.72190 2058 ft 135 kts 270°
2026-05-05 21:13 50.06718 8.70739 1953 ft 134 kts 258°
2026-05-05 21:13 50.06508 8.69334 1805 ft 135 kts 254°
2026-05-05 21:13 50.06237 8.67934 1616 ft 134 kts 251°
2026-05-05 21:14 50.05921 8.66564 1439 ft 134 kts 249°
2026-05-05 21:14 50.05570 8.65229 1219 ft 134 kts 247°
2026-05-05 21:14 50.05257 8.63871 1008 ft 133 kts 250°
2026-05-05 21:14 50.04936 8.62528 881 ft 133 kts 248°
2026-05-05 21:15 50.04612 8.61169 748 ft 133 kts 249°
2026-05-05 21:15 50.04295 8.59842 582 ft 131 kts 248°
2026-05-05 21:15 50.03978 8.58525 416 ft 129 kts 248°
2026-05-05 21:15 50.03680 8.57286 352 ft 103 kts 250°
2026-05-05 21:16 50.03489 8.56483 352 ft 53 kts 249°
2026-05-05 21:16 50.03447 8.56032 352 ft 39 kts 282°
2026-05-05 21:16 50.03471 8.55792 352 ft 11 kts 280°
2026-05-05 21:16 50.03483 8.55690 352 ft 9 kts 278°
2026-05-05 21:17 50.03494 8.55579 352 ft 11 kts 279°
2026-05-05 21:17 50.03490 8.55452 352 ft 12 kts 254°
2026-05-05 21:17 50.03453 8.55296 352 ft 20 kts 248°
2026-05-05 21:17 50.03402 8.55088 352 ft 20 kts 252°
2026-05-05 21:18 50.03429 8.54886 352 ft 20 kts 313°
2026-05-05 21:18 50.03554 8.54792 352 ft 19 kts 344°
2026-05-05 21:18 50.03671 8.54726 352 ft 15 kts 340°
2026-05-05 21:18 50.03719 8.54709 352 ft 3 kts 353°
2026-05-05 21:19 50.03756 8.54731 352 ft 9 kts 38°
2026-05-05 21:19 50.03783 8.54837 352 ft 11 kts 73°
2026-05-05 21:19 50.03814 8.54961 352 ft 12 kts 67°
2026-05-05 21:19 50.03846 8.55095 352 ft 13 kts 74°
2026-05-05 21:20 50.03882 8.55255 352 ft 20 kts 68°
2026-05-05 21:20 50.03942 8.55491 352 ft 24 kts 70°
2026-05-05 21:20 50.03999 8.55734 352 ft 23 kts 69°
2026-05-05 21:20 50.04057 8.55968 352 ft 23 kts 70°
2026-05-05 21:21 50.04110 8.56203 352 ft 22 kts 70°
2026-05-05 21:21 50.04168 8.56443 352 ft 23 kts 70°
2026-05-05 21:21 50.04225 8.56683 352 ft 23 kts 69°
2026-05-05 21:21 50.04287 8.56935 352 ft 26 kts 70°
2026-05-05 21:22 50.04359 8.57229 352 ft 30 kts 68°
2026-05-05 21:22 50.04426 8.57530 352 ft 28 kts 70°
2026-05-05 21:22 50.04495 8.57803 352 ft 26 kts 71°
2026-05-05 21:22 50.04552 8.58000 352 ft 17 kts 43°
2026-05-05 21:23 50.04661 8.57989 352 ft 16 kts 338°
2026-05-05 21:23 50.04770 8.57919 352 ft 17 kts 345°
2026-05-05 21:23 50.04860 8.57813 352 ft 16 kts 296°
2026-05-05 21:23 50.04908 8.57645 352 ft 17 kts 295°
2026-05-05 21:24 50.04939 8.57524 352 ft 9 kts 270°
2026-05-05 21:24 50.04903 8.57460 352 ft 4 kts 220°
2026-05-05 21:24 50.04890 8.57444 352 ft 0 kts 217°
2026-05-05 21:24 50.04891 8.57445 352 ft 0 kts 218°